Home > Weather > Peine > Past weeks

Flag for Germany Weather for the Past 2 Weeks in Peine, Lower Saxony, Germany

Now
36 °F

Fog.


Feels Like: 36 °F
Forecast: 30 / 35 °F
Wind: No wind

Location: Braunschweig Wolfsburg

Current Time: Feb 14, 2016 at 9:00:16 PM

Latest Report: Feb 14, 2016 at 7:20 PM


Visibility: 0 mi

Pressure: 29.33 "Hg

Humidity: 93%

Dew point: 34 °F

Location of PeineLocation

Historic Weather in Peine — Graph

°F

Peine Temperature Yesterday

Maximum temperature yesterday: 43 °F (at 12:50 PM)
Minimum temperature yesterday: 28 °F (at 7:50 AM)
Average temperature yesterday: 37 °F

High & Low Weather Summary for the Past Weeks

 TemperatureHumidityPressure
High55 °F (Feb 7, 11:50 AM)100% (Feb 1, 7:20 AM)30.24 "Hg (Feb 1, 7:20 AM)
Low28 °F (Feb 13, 7:50 AM)51% (Feb 7, 11:50 AM)28.85 "Hg (Feb 9, 7:20 PM)
Average42 °F78%29.63 "Hg
* Reported Jan 31 7:50 AM — Feb 14 7:20 PM, Peine, Weather by CustomWeather, © 2016

Note: Actual official high and low records may vary slightly from our data, if they occured in-between our weather recording intervals... More about our weather records

Advertising

Peine Weather History for the Previous 24 Hours

 ConditionsComfort  
Time TempWeatherWind HumidityBarometerVisibility
7:20 PM
Sun, Feb 14
36 °FFog.No wind93%29.33 "Hg1 mi
6:50 PM36 °FFog.No wind93%29.33 "Hg1 mi
6:20 PM36 °FFog.3 mph93%29.30 "Hg1 mi
5:50 PM36 °FFog.3 mph93%29.27 "Hg1 mi
5:20 PM36 °FFog.5 mph93%29.27 "Hg1 mi
4:50 PM36 °FFog.5 mph93%29.24 "Hg1 mi
4:20 PM36 °FFog.5 mph93%29.24 "Hg1 mi
3:50 PM36 °FFog.5 mph93%29.24 "Hg2 mi
3:20 PM36 °FFog.5 mph93%29.21 "Hg3 mi
2:50 PM34 °FLow clouds.6 mph100%29.21 "Hg4 mi
2:20 PM34 °FLow clouds.5 mph100%29.18 "Hg4 mi
1:50 PM34 °FLow clouds.5 mph100%29.18 "Hg4 mi
1:20 PM34 °FFog.6 mph100%29.18 "Hg3 mi
12:50 PM34 °FFog.6 mph100%29.18 "Hg2 mi
12:20 PM34 °FDrizzle. Fog.6 mph93%29.15 "Hg3 mi
11:50 AM34 °FFog.7 mph93%29.15 "Hg3 mi
11:20 AM34 °FFog.8 mph93%29.15 "Hg2 mi
10:50 AM34 °FLight snow. Fog.7 mph93%29.15 "Hg2 mi
10:20 AM34 °FLight snow. Fog.8 mph93%29.12 "Hg2 mi
9:50 AM34 °FLight snow. Fog.8 mph93%29.12 "Hg2 mi
9:20 AM34 °FLight snow. Fog.8 mph93%29.12 "Hg2 mi
8:20 AM32 °FSnow. Low clouds.8 mph100%29.12 "Hg1 mi
7:50 AM34 °FSnow. Low clouds.9 mph93%29.12 "Hg1 mi
Weather by CustomWeather, © 2016

See weather overviewHow to use our weather pages